FW5236 Weather Reports


time (UTC)temp
C
wind
direction
speed
KPH
gust
KPH
rain 1hr
cm
rain 24hr
cm
rain mn
cm
humidity
%
barometer
mb
20260504033031 21 157 0.0 1.6 0.00 0.00 0.00 41 1011.3
20260504031532 22 157 0.0 1.6 0.00 0.00 0.00 40 1011.2
20260504030029 23 157 0.0 1.6 0.00 0.00 0.00 39 1011.1
20260504024532 27 157 0.0 1.6 0.00 0.00 0.00 36 1011.0
20260504021531 29 157 0.0 0.0 0.00 0.00 0.00 30 1011.1
20260504020030 31 131 0.0 1.6 0.00 0.00 0.00 27 1011.2
20260504014606 31 112 0.0 3.2 0.00 0.00 0.00 25 1011.3
20260504013032 32 128 0.0 4.8 0.00 0.00 0.00 24 1011.4
20260504011530 32 136 0.0 4.8 0.00 0.00 0.00 24 1011.5
20260504010031 32 157 0.0 4.8 0.00 0.00 0.00 24 1011.8
20260504004530 32 141 0.0 4.8 0.00 0.00 0.00 23 1011.9
20260504001531 32 142 0.0 4.8 0.00 0.00 0.00 23 1012.1
20260503234530 31 151 0.0 6.4 0.00 0.00 0.00 23 1012.4
20260503233033 31 150 1.6 8.0 0.00 0.00 0.00 22 1012.6
20260503231530 31 132 1.6 4.8 0.00 0.00 0.00 23 1012.8
20260503230032 31 133 3.2 11.3 0.00 0.00 0.00 24 1013.1
20260503223032 30 156 3.2 11.3 0.00 0.00 0.00 25 1013.6
20260503221529 30 136 1.6 6.4 0.00 0.00 0.00 25 1013.8
20260503214529 29 157 1.6 6.4 0.00 0.00 0.00 25 1014.2
20260503213030 28 152 3.2 11.3 0.00 0.00 0.00 26 1014.4
20260503210105 29 155 1.6 6.4 0.00 0.00 0.00 27 1014.8
20260503204529 28 136 3.2 8.0 0.00 0.00 0.00 28 1015.0
20260503203031 28 158 1.6 8.0 0.00 0.00 0.00 30 1015.2
20260503201530 28 165 3.2 9.7 0.00 0.00 0.00 31 1015.4
20260503200032 28 153 1.6 11.3 0.00 0.00 0.00 30 1015.5
20260503193031 28 163 1.6 6.4 0.00 0.00 0.00 32 1015.9
20260503191530 28 165 1.6 9.7 0.00 0.00 0.00 31 1016.1
20260503190030 28 151 1.6 4.8 0.00 0.00 0.00 31 1016.2
20260503184605 28 142 1.6 6.4 0.00 0.00 0.00 32 1016.3
20260503183029 27 73 0.0 6.4 0.00 0.00 0.00 36 1016.4
20260503180031 27 42 0.0 4.8 0.00 0.00 0.00 36 1016.7
20260503174530 27 65 0.0 1.6 0.00 0.00 0.00 37 1016.8
20260503173040 25 67 0.0 1.6 0.00 0.00 0.00 43 1016.9
20260503171606 25 71 0.0 1.6 0.00 0.00 0.00 44 1016.9
20260503120105 11 236 3.2 6.4 0.00 0.00 0.00 73 1016.9
20260503081606 13 225 3.2 6.4 0.00 0.00 0.00 68 1016.6
20260503080104 13 230 3.2 6.4 0.00 0.00 0.00 68 1016.5
20260503071531 14 225 1.6 4.8 0.00 0.00 0.00 66 1016.6
20260503053028 16 225 0.0 3.2 0.00 0.00 0.00 57 1016.5
20260503050033 17 225 3.2 8.0 0.00 0.00 0.00 49 1016.4
20260503044530 18 248 1.6 6.4 0.00 0.00 0.00 48 1016.3
20260503043033 18 256 3.2 6.4 0.00 0.00 0.00 46 1016.3
20260503041529 18 300 3.2 9.7 0.00 0.00 0.00 51 1016.3
20260503040039 17 241 1.6 4.8 0.00 0.00 0.00 54 1016.2